星链-2431 (STARLINK-2431 )

导读

STARLINK-2431是美国SpaceX公司星链(Starlink)项目旗下的一颗低轨通信卫星,于2021年3月11日发射入轨,目前运行在近地点高度546km、远地点高度548km的近地轨道,轨道倾角约53.05°,每日绕地球约15圈,承担着为全球用户提供低延迟高速互联网接入服务的任务,是星链全球卫星互联网星座组网过程中的重要组成单元。

Basic Information
目录编号:
47839
目录名称:
STARLINK-2431
国际标识:
2021-018BE
轨道中心:
EARTH
卫星名称:
星链-2431
卫星全名:
星链-2431 (STARLINK-2431 )
卫星状态:
在轨 (已飞行2003 天)
发射日期:
2021-03-11 UTC
国别 :
美国 (US)
星等 :
--
Orbit Information
数据来源 国际轨道数据
星历时间: 2026-09-03T05:51:31+0800
1天前
查看轨道信息
半长轴: 6848.883km
偏心率: 0.0001332
轨道倾角: 53.161°
近地点辐角 88.079°
升交点赤经 112.243°
平近点角 272.037°
近地点: 469.833km
远地点: 471.659km
周期: 94.013分钟
每日圈数: 15.316983
Detailed Information
固有亮度:
5
最大亮度:
2.5
卫星平台:
Starlink V1.0
覆盖范围:
全球
运营商:
太空探索技术公司
运营商所在国:
美国
制造商(研发单位):
太空探索技术公司
制造商所在国:
美国
使用方式:
暂无
Satellite Introduction
星链(Starlink)计划是由太空探索技术公司(SpaceX)提出的一个巨型低轨卫星互联网星座项目,计划在2019年至2024年间在太空搭建由约1.2万颗卫星组成的“星链”网络,其中1584颗将部署在地球上空550千米处的近地轨道,并从2020年开始工作。该卫星仍在工作。
2D Orbit Map
3D Orbit Map
Orbit Altitude Analysis Chart
Orbit Inclination Analysis Chart
Orbit Comprehensive Analysis Chart
View Comprehensive Chart
Conjunction Data List
Event ID Objects TCA Miss Dist (km) Collision Risk Probability Collision Risk Index (CRI) Action
CDM_260828-004704-783905-717523
OBJECT K (57175)
2026-08-28T
00:47:18+0000
1.500 km
极远距离
6.658138E-6 低风险 0.51
CDM_260905-110604-783905-322021
2026-09-05T
11:06:42+0000
1.658 km
极远距离
4.807918E-6 低风险 0.49
CDM_260905-085804-783905-701421
OBJECT L (57014)
2026-09-05T
08:58:26+0000
1.855 km
极远距离
3.046293E-6 低风险 0.45
CDM_260905-163202-638304-783921
2026-09-05T
16:32:36+0000
1.810 km
极远距离
2.766912E-6 低风险 0.44
CDM_260905-115304-783905-322021
2026-09-05T
11:53:43+0000
2.470 km
极远距离
1.771597E-6 低风险 0.4
CDM_260905-012304-783906-921321
2026-09-05T
01:23:31+0000
2.743 km
极远距离
1.496278E-6 低风险 0.39
CDM_260905-150404-783906-760321
2026-09-05T
15:04:45+0000
2.878 km
极远距离
1.379546E-6 低风险 0.38
CDM_260905-224104-783906-766621
2026-09-05T
22:41:57+0000
2.969 km
极远距离
1.354168E-6 低风险 0.38